Regional Weather Roundup
Issued by NWS

Home | Current Version | Previous Version | Text Only | Print | Product List | Glossary On
Versions: 1 2 3 4 5 6 7 8 9 10 11 12 13 14 15 16 17 18 19 20 21 22 23 24 25 26 27 28 29 30 31 32 33 34 35 36 37 38 39 40 41 42 43 44 45 46 47 48 49 50
420
ASUS45 KTFX 260610
RWRMT
MONTANA REGIONAL WEATHER ROUNDUP
NATIONAL WEATHER SERVICE GREAT FALLS MT
1200 AM MDT SUN MAR 26 2017

NOTE: "FAIR" INDICATES FEW OR NO CLOUDS BELOW 12000 FEET WITH NO
SIGNIFICANT WEATHER AND/OR OBSTRUCTIONS TO VISIBILITY.

MTZ001>007-043-260700-
WEST OF THE DIVIDE

CITY           SKY/WX    TMP DP  RH WIND       PRES   REMARKS
KALISPELL      CLOUDY    38  32  79 SW3       29.99R
MISSOULA       CLOUDY    40  34  79 CALM      30.03R
BUTTE          CLEAR     34  25  69 NW10      29.96S WCI  26
MULLAN PASS    PTCLDY    25  22  88 W5        29.95S
ANACONDA         N/A     32  27  80 NW3       29.99R
DEER LODGE       N/A     36  28  75 NE5       30.01R
EUREKA           N/A     37  27  65 E6        29.98S
HAMILTON         N/A     39  34  81 CALM      30.02R
PLAINS           N/A     40  30  67 CALM      30.03R
RONAN            N/A     40  34  79 SE3       30.04S
$$

MTZ008-052>055-260700-
SOUTHWEST MONTANA

CITY           SKY/WX    TMP DP  RH WIND       PRES   REMARKS
BOZEMAN        MOCLDY    37  32  82 S8        29.94R WCI  31
DILLON         CLOUDY    38  23  55 S6        29.94R
W YELLOWSTONE  CLOUDY    32  28  86 CALM      29.98S
ENNIS          CLOUDY    37  30  75 S13       29.98S WCI  29
THREE FORKS      N/A     41 -47   2 CALM      29.95R
TWIN BRIDGES     N/A     40  27  60 NE2       29.94R
$$

MTZ009-010-012-014-046-048-049-054-260700-
EAST SLOPES AND CENTRAL MONTANA

CITY           SKY/WX    TMP DP  RH WIND       PRES   REMARKS
CUT BANK       PTCLDY    31  24  75 W13       29.89S WCI  21
GREAT FALLS    CLOUDY    30  22  72 SW9       29.92S WCI  22
MALMSTROM AFB  CLEAR     32  23  68 S6        29.93S WCI  27
HELENA         PTCLDY    43  29  57 SW12      29.95S
AUGUSTA        MOCLDY    37  23  55 W10       29.92R WCI  30
BOWMANS CRNR     N/A     36  25  64 W3        29.92R
CHOTEAU          N/A     36  23  60 SW10      29.94R WCI  28
CONRAD           N/A     35  33  92 SW5       29.94R
FAIRFIELD        N/A     36  23  59 SW10      29.92R WCI  29
POWER            N/A     31  23  73 W9        29.91S WCI  23
RAYNESFORD     MOCLDY    32  22  65 E3        29.94S
$$

MTZ011-013-016-021-045-047-050-051-260700-
NORTH CENTRAL MONTANA

CITY           SKY/WX    TMP DP  RH WIND       PRES   REMARKS
HAVRE          CLEAR     38  26  62 SW8       29.89S
LEWISTOWN      CLOUDY    37  21  52 SE5       29.91S
N BAR RANCH      N/A     36  19  51 W10       29.94S WCI  28
CHINOOK          N/A     36  23  60 CALM      29.90R
DENTON           N/A     35  23  60 W15       29.88S WCI  25
FORT BENTON      N/A     39  21  48 MISG      29.94R
GEYSER           N/A     35  21  55 SW13      29.92S WCI  27
GRASS RANGE    MOCLDY    37  24  59 W6        29.88S WCI  32
STANFORD         N/A     32  21  65 W8        29.92S WCI  25
WINIFRED         N/A     40  20  46 SW6       29.90R
$$

MTZ017>020-022>027-061-062-260700-
NORTHEAST MONTANA

CITY           SKY/WX    TMP DP  RH WIND       PRES   REMARKS
GLASGOW        CLOUDY    42  29  59 E6        29.88R
JORDAN           N/A     43  33  68 NW7       29.89S
SIDNEY         PTCLDY    44  32  62 CALM      29.89S
WOLF POINT     CLOUDY    40  34  79 CALM      29.89S
MALTA          CLOUDY    39  32  75 W6        29.88R
PLENTYWOOD       N/A     45  30  57 E6        29.89S
POPLAR           N/A     43  28  56 E3        29.89S
SCOBEY           N/A     35  20  55 CALM      29.87S
$$

MTZ028>42-056>058-260700-
SOUTHCENTRAL AND SOUTHEAST MONTANA

CITY           SKY/WX    TMP DP  RH WIND       PRES   REMARKS
BAKER          LGT RAIN  44  37  76 CALM      29.92S
BILLINGS       CLOUDY    45  33  63 SW5       29.92R
LIVINGSTON     PTCLDY    32  28  85 S7        29.93S WCI  26
MILES CITY     CLOUDY    47  35  63 S5        29.91S
BIG TIMBER     PTCLDY    34  30  86 W10       29.96S WCI  26
FORSYTH          N/A     48  36  61 S3        29.91S
HARLOWTON        N/A     35  24  62 W14       29.92S WCI  26
LAUREL           N/A     41  28  60 CALM      29.91F
$$

REGIONAL REPORTS...DAKOTAS

CITY           SKY/WX    TMP DP  RH WIND       PRES   REMARKS
WILLISTON      CLOUDY    42  33  70 N5        29.88S
MINOT          CLOUDY    45  35  68 S6        29.88S
DICKINSON      CLOUDY    44  30  57 W5        29.88S
BEACH            N/A    N/A N/A N/A MISG        N/A
TIOGA            N/A     39  36  87 CALM      29.91S
WATFORD CITY   MOCLDY    43  34  70 CALM      29.88S
BISMARCK       CLOUDY    42  34  73 SE5       29.93S
GRAND FORKS    PTCLDY    32  31  96 S5        30.00S
FARGO          CLOUDY    34  33  96 S8        30.00F WCI  27
BUFFALO SD       N/A     47  33  58 NE10      29.82R
RAPID CITY     MOCLDY    48  31  51 N9        29.81R
$$

REGIONAL REPORTS...WYOMING/IDAHO/WASHINGTON

CITY           SKY/WX    TMP DP  RH WIND       PRES   REMARKS
GILLETTE       CLOUDY    42  36  79 N12       29.90F
SHERIDAN       LGT RAIN  38  36  92 S5        29.96R
BUFFALO WY     LGT RAIN  37  33  85 NW12      29.94S WCI  29
CODY           PTCLDY    38  32  79 SW5       29.95S
YELLOWSTONE LA   N/A     21  20  96 CALM      30.00S
IDAHO FALLS    CLEAR     38  27  64 S12       29.98S WCI  30
SALMON         CLEAR    N/A N/A N/A MISG        N/A
BOISE          MOCLDY    43  31  62 SE10      30.00S
SPOKANE        PTCLDY    37  31  78 S8        29.99S WCI  31
$$

REGIONAL REPORTS...ALBERTA

CITY           SKY/WX    TMP DP  RH WIND       PRES   REMARKS
EDMONTON       CLOUDY    37  30  75 W3        29.78R
CALGARY        CLEAR     37  12  35 W15       29.78R WCI  28
LETHBRIDGE     CLEAR     32  19  59 SW9       29.86R WCI  24
MEDICINE HAT   CLEAR     34  23  64 S5        29.84R
WATERTON GATE    N/A     36  18  48 SW23G38     N/A  WCI  24
CARDSTON         N/A     36  16  44 SW7         N/A  WCI  30
MILK RIVER       N/A     30  25  80 SW2         N/A
$$

REGIONAL REPORTS...SASKATCHEWAN

CITY           SKY/WX    TMP DP  RH WIND       PRES   REMARKS
SWIFT CURRENT  MOCLDY    41  27  56 SW14G20   29.82S
REGINA         PTCLDY    36  34  93 SE8       29.86S WCI  29
SASKATOON      PTCLDY    30  28  93 E7        29.87S WCI  23
CYPRESS HILLS    N/A     37  16  41 W7          N/A
VAL MARIE        N/A     34  28  80 N3          N/A
ROCKGLEN         N/A     41  27  56 SE5         N/A
ASSINIBOIA       N/A     27  27 100 S1          N/A
$$




USA.gov is the U.S. government's official web portal to all federal, state and local government web resources and services.